カタログに戻る

TITAN 34D TRANSTAGE DEB

LostGTO
NORAD 28657·DEBRIS·🇺🇸 United States

打ち上げ Sep 2, 1988 から Cape Canaveral Space Force Station

Loading…

TLE

古いSource: Space-Track

元期: Jun 28, 2019, 06:55 UTC

1 28657U 88077T   19179.28820785 -.00000057  00000-0 -55484-4 0  9999
2 28657  27.3258   4.2140 7315060 343.5225 339.2426  2.14158341    02

AllMySatでTITAN 34D TRANSTAGE DEBをリアルタイム追跡

Download on the App Store